Location: Bergnershof
(48.9468°N, 10.9431°E)
Time: 23:12:47
(UTC+00:00)

Cosmos 2333 Rocket - Pass Details

Date: 03 March 2021
Orbit: 837 x 864 km, 70.8° (Epoch: 13 April)

Event Time Altitude Azimuth Distance (km) Brightness Sun altitude
Rises 18:47:31 0° 186° (S) 3,387 5.3 -17.9°
Reaches altitude 10° 18:50:01 10° 181° (S) 2,460 4.5 -18.3°
Maximum altitude 18:55:22 46° 109° (ESE) 1,133 2.4 -19.2°
Drops below altitude 10° 19:00:48 10° 38° (NE) 2,494 4.4 -20.0°
Sets 19:03:21 0° 33° (NNE) 3,439 5.2 -20.4°
